Torna al catalogo

STARLINK-11647

AttivoComunicazioniVLEO
NORAD 63191·PAYLOAD·🇺🇸 United States

Lanciato Mar 13, 2025 da Cape Canaveral Space Force Station

Loading…

Prossimi Passaggi (prossime 24 ore)

TLE

AggiornatoSource: CelesTrak SupGP

Epoca: Sep 14, 2026, 22:16 UTC

1 63191C 25048J   26257.92826389  .00059901  00000+0  46531-3 0  2570
2 63191  43.0006 259.0835 0001494 258.0488 152.6622 15.70806083    13

Traccia STARLINK-11647 in tempo reale con AllMySat

Download on the App Store